#timestamp,LO_Frequency,Hit,StdDev 
1508094015.2,286047000.9,N
1508094035.1,286046999.0,N
1508094036.0,286046999.0,N
1508094055.8,286047002.3,N
1508094075.6,286047003.8,N
1508094095.5,286047004.6,N
1508094115.3,286047004.1,N
1508094135.1,286047001.5,N
1508094155.9,286046999.9,N
1508094175.7,286046999.7,N
1508094195.5,286047002.1,N
1508094215.4,286047004.2,N
1508094235.2,286047005.0,N
1508094255.0,286047005.9,N
1508094255.9,286047005.9,N
1508094275.8,286047005.7,N
1508094295.6,286047005.7,N
1508094315.4,286047003.8,N
1508094335.2,286047001.4,N
1508094355.1,286046999.8,N
1508094356.0,286046999.8,N
1508094375.8,286047000.2,N
1508094395.6,286047002.4,N
1508094415.5,286047004.1,N
1508094435.3,286047003.0,N
1508094455.1,286047007.0,Y
1508094475.9,286047005.5,P
1508094495.7,286047003.8,N
1508094515.5,286047003.5,N
1508094535.4,286047000.6,N
1508094555.2,286046996.7,N
1508094575.1,286046996.7,N
1508094576.0,286046996.7,N
1508094595.8,286046996.2,N
1508094615.6,286046995.7,N
1508094635.5,286046995.2,N
1508094655.3,286046997.6,N
1508094675.1,286046993.8,N
1508094695.8,286046994.1,N
1508094715.7,286046996.0,N
1508094735.5,286046994.1,N
1508094755.3,286046994.3,N
1508094775.2,286046994.7,N
1508094795.9,286046992.9,N
1508094815.7,286046994.4,N
1508094835.6,286046991.9,N
1508094855.4,286046992.6,N
1508094875.2,286046990.7,N
1508094895.1,286046990.1,N
1508094896.0,286046990.1,N
1508094915.8,286046990.4,N
1508094935.6,286046990.8,N
1508094955.4,286046988.5,N
1508094975.3,286046989.5,N
1508094995.1,286046986.9,N
1508095015.8,286046985.3,Y
1508095035.7,286046990.1,P
1508095055.5,286046990.9,P
1508095075.3,286046990.7,P
1508095095.2,286046991.4,Y
1508095115.0,286046995.6,P
1508095115.9,286046995.6,N
1508095135.7,286046997.8,N
1508095155.6,286046995.1,N
1508095175.4,286046994.1,N
1508095195.2,286046992.3,Y
1508095215.1,286046991.7,P
1508095216.0,286046991.7,P
1508095235.8,286046993.4,P
1508095255.6,286047000.0,N
1508095275.5,286047004.2,N
1508095295.3,286047009.1,N
1508095315.1,286047011.9,N
1508095335.9,286047013.4,N
1508095355.7,286047016.6,N
1508095375.5,286047019.0,N
1508095395.4,286047017.3,N
1508095415.2,286047019.0,N
1508095435.0,286047017.9,N
1508095435.9,286047017.9,N
1508095455.8,286047017.4,N
1508095475.6,286047019.8,N
1508095495.4,286047024.7,N
1508095515.2,286047025.2,N
1508095535.1,286047020.6,N
1508095536.0,286047020.6,N
1508095555.8,286047026.3,N
1508095575.6,286047026.2,N
1508095595.5,286047025.2,N
1508095615.3,286047025.4,N
1508095635.1,286047022.3,N
1508095655.9,286047024.9,N
1508095675.7,286047022.5,N
1508095695.5,286047023.1,N
1508095715.4,286047022.5,N
1508095735.2,286047022.1,N
1508095755.0,286047022.6,N
1508095755.9,286047022.6,N
1508095775.8,286047024.4,Y
1508095795.6,286047006.9,P
1508095815.4,286047005.3,N
1508095835.3,286047005.1,N
1508095855.1,286047003.4,N
1508095856.0,286047003.4,N
1508095875.8,286047001.5,N
1508095895.7,286047003.3,N
1508095915.5,286047007.2,N
1508095935.3,286047005.7,N
1508095955.1,286047003.8,N
1508095975.9,286047002.7,N
1508095995.7,286047001.5,N
1508096015.5,286047003.4,N
1508096035.4,286047003.5,N
1508096055.2,286047007.5,N
1508096075.0,286047006.4,N
1508096075.9,286047006.4,N
1508096095.8,286047007.4,N
1508096115.6,286047005.1,N
1508096135.4,286047005.4,N
1508096155.3,286047004.4,N
1508096175.1,286047002.1,N
1508096176.0,286047002.1,N
1508096195.8,286047002.0,N
1508096215.7,286047000.5,N
1508096235.5,286047001.8,N
1508096255.3,286046998.5,N
1508096275.2,286047001.1,N
1508096295.9,286046998.2,N
1508096315.7,286047001.0,N
1508096335.5,286046998.3,N
1508096355.4,286046999.2,N
1508096375.2,286046999.0,N
1508096395.0,286046998.3,N
1508096395.9,286046998.3,N
1508096415.8,286047000.6,N
1508096435.6,286047001.7,N
1508096455.4,286047005.1,N
1508096475.3,286047006.0,N
1508096495.1,286047003.9,N
1508096515.8,286047002.8,N
1508096535.7,286046997.8,N
1508096555.5,286046993.3,N
1508096575.3,286046991.9,N
1508096595.2,286046990.8,N
1508096615.9,286046993.1,N
1508096635.7,286046992.9,N
1508096655.6,286046988.5,N
1508096675.4,286046988.5,N
1508096695.2,286046989.1,N
1508096715.0,286046988.3,N
1508096715.9,286046988.3,N
1508096735.8,286046985.4,N
1508096755.6,286046987.9,N
1508096775.4,286046984.7,N
1508096795.3,286046982.3,N
1508096815.1,286046986.0,N
1508096835.8,286046983.8,N
1508096855.7,286046985.1,N
1508096875.5,286046983.0,N
1508096895.3,286046982.8,N
1508096915.2,286046980.9,N
1508096935.9,286046981.1,N
1508096955.7,286046982.0,N
1508096975.6,286046979.2,N
1508096995.4,286046980.1,N
1508097015.2,286046979.5,N
1508097035.0,286046979.7,N
1508097036.0,286046979.7,N
1508097055.8,286046979.3,Y
1508097075.6,286046992.5,P
1508097095.5,286046992.3,N
1508097115.3,286046992.2,P
1508097135.1,286046990.6,Y
1508097155.9,286047003.9,P
1508097175.7,286047004.4,N
1508097195.5,286047002.3,N
1508097215.4,286046998.0,N
1508097235.2,286046990.1,N
1508097255.0,286046998.7,N
1508097255.9,286046998.7,N
1508097275.7,286047005.1,N
1508097295.6,286047010.3,N
1508097315.4,286047017.5,N
1508097335.2,286047016.3,N
1508097355.1,286047017.8,N
1508097356.0,286047017.8,N
1508097375.8,286047022.3,N
1508097395.6,286047028.3,N
1508097415.5,286047025.5,N
1508097435.3,286047026.0,N
1508097455.1,286047028.2,N
1508097475.9,286047024.5,N
1508097495.7,286047022.2,N
1508097515.5,286047025.0,N
1508097535.4,286047021.3,N
1508097555.2,286047022.9,N
1508097575.0,286047022.7,N
1508097575.9,286047022.7,N
1508097595.7,286047024.3,N
